Weather History for Oceanside, CA

Change the Weather History Date:

Tuesday, November 20, 2012

  Actual Average Record
Temperature  
Mean Temperature 55 °F 56 °F  
Max Temperature 69 °F 69 °F 91 °F (2002)
Min Temperature 41 °F 43 °F 35 °F (2009)
Degree Days  
Heating Degree Days 10 9  
Month to date heating degree days 128 147  
Since 1 July heating degree days 173 249  
Cooling Degree Days 0 0  
Month to date cooling degree days 5 0  
Year to date cooling degree days 640 416  
Growing Degree Days 4 (Base 50)    
Moisture  
Dew Point 45 °F    
Average Humidity 74    
Maximum Humidity 96    
Minimum Humidity 52    
Precipitation  
Precipitation 0.00 in 0.03 in 0.60 in (2011)
Month to date precipitation 0.16 0.75  
Year to date precipitation 6.21 11.23  
Since 1 July precipitation 1.21 1.96  
Snow  
Snow 0.00 in - - ()
Month to date snowfall 0.0  
Year to date snowfall 0.0  
Since 1 July snowfall 0.0  
Snow Depth 0.00 in    
Sea Level Pressure  
Sea Level Pressure 30.12 in    
Wind  
Wind Speed 2 mph (West)    
Max Wind Speed 13 mph    
Max Gust Speed -    
Visibility 4 miles    
Events Fog    
T = Trace of Precipitation, MM = Missing Value Source: NWS Daily Summary

Daily Weather History Graph

Daily Weather History Graph

Search for Another Location

Airport:

Trip Planner

Search our weather history database for the weather conditions in past years. The results will help you decide how hot, cold, wet, or windy it might be!

Date:

Astronomy

Nov. 20, 2012 Rise Set
Actual Time 6:25 AM PST 4:44 PM PST
Civil Twilight 5:58 AM PST 5:11 PM PST
Nautical Twilight 5:28 AM PST 5:41 PM PST
Astronomical Twilight 4:59 AM PST 6:10 PM PST
Moon 12:12 PM PST (11/20) No Moon Set
Length of Visible Light 11h 12m
Length of Day
10h 19m
First Quarter, 52% of the Moon is Illuminated
Nov 20
First Quarter
Nov 28
Full
Dec 6
Last Quarter
Dec 13
New
Dec 19
First Quarter

Hourly Weather History & Observations

Time (PST) Temp. Dew Point Humidity Pressure Visibility Wind Dir Wind Speed Gust Speed Precip Events Conditions
12:36 AM 46.4 °F 44.6 °F 93% 30.16 in 2.5 mi Calm Calm - N/A   Clear
12:44 AM 46.4 °F 44.6 °F 93% 30.16 in 6.0 mi Calm Calm - N/A   Clear
12:50 AM 46.4 °F 44.6 °F 93% 30.16 in 1.8 mi Calm Calm - N/A   Clear
12:52 AM 46.9 °F 45.0 °F 93% 30.16 in 1.5 mi Calm Calm - N/A   Clear
1:00 AM 46.4 °F 44.6 °F 93% 30.15 in 3.0 mi Calm Calm - N/A   Clear
1:27 AM 46.4 °F 44.6 °F 93% 30.15 in 1.8 mi Calm Calm - N/A   Clear
1:36 AM 44.6 °F 42.8 °F 93% 30.15 in 3.0 mi Calm Calm - N/A   Clear
1:43 AM 44.6 °F 42.8 °F 93% 30.15 in 1.5 mi Calm Calm - N/A   Partly Cloudy
1:45 AM 42.8 °F 42.8 °F 100% 30.15 in 0.8 mi Calm Calm - N/A   Mist
1:52 AM 44.1 °F 43.0 °F 96% 30.14 in 0.5 mi Calm Calm - N/A Fog Fog
1:56 AM 44.6 °F 42.8 °F 93% 30.14 in 1.2 mi Calm Calm - N/A   Scattered Clouds
2:03 AM 46.4 °F 44.6 °F 93% 30.14 in 0.8 mi Calm Calm - N/A   Mist
2:21 AM 44.6 °F 42.8 °F 93% 30.14 in 0.5 mi Calm Calm - N/A Fog Fog
2:26 AM 44.6 °F 42.8 °F 93% 30.14 in 2.0 mi Calm Calm - N/A   Mostly Cloudy
2:31 AM 44.6 °F 42.8 °F 93% 30.14 in 1.5 mi Calm Calm - N/A   Mostly Cloudy
2:38 AM 42.8 °F 41.0 °F 93% 30.14 in 0.8 mi Calm Calm - N/A   Mist
2:50 AM 44.6 °F 42.8 °F 93% 30.14 in 1.0 mi Calm Calm - N/A   Mist
2:52 AM 44.1 °F 43.0 °F 96% 30.14 in 1.5 mi Calm Calm - N/A   Mostly Cloudy
2:54 AM 44.6 °F 42.8 °F 93% 30.14 in 3.0 mi Calm Calm - N/A   Scattered Clouds
3:52 AM 43.0 °F 41.0 °F 93% 30.13 in 2.5 mi Calm Calm - N/A   Partly Cloudy
3:59 AM 44.6 °F 42.8 °F 93% 30.13 in 0.8 mi Calm Calm - N/A   Clear
4:06 AM 42.8 °F 41.0 °F 93% 30.13 in 1.0 mi Calm Calm - N/A   Mist
4:15 AM 42.8 °F 41.0 °F 93% 30.13 in 0.5 mi Calm Calm - N/A Fog Fog
4:28 AM 42.8 °F 41.0 °F 93% 30.13 in 1.2 mi Calm Calm - N/A   Scattered Clouds
4:40 AM 42.8 °F 41.0 °F 93% 30.13 in 3.0 mi Calm Calm - N/A   Partly Cloudy
4:46 AM 42.8 °F 41.0 °F 93% 30.13 in 1.8 mi Calm Calm - N/A   Partly Cloudy
4:52 AM 43.0 °F 41.0 °F 93% 30.13 in 1.5 mi Calm Calm - N/A   Partly Cloudy
4:56 AM 42.8 °F 41.0 °F 93% 30.13 in 3.0 mi Calm Calm - N/A   Partly Cloudy
5:18 AM 41.0 °F 39.2 °F 93% 30.13 in 1.8 mi Calm Calm - N/A   Clear
5:21 AM 42.8 °F 39.2 °F 87% 30.13 in 0.8 mi Calm Calm - N/A   Mist
5:36 AM 41.0 °F 39.2 °F 93% 30.13 in 0.8 mi Calm Calm - N/A   Mist
5:41 AM 41.0 °F 39.2 °F 93% 30.13 in 1.2 mi Calm Calm - N/A   Partly Cloudy
5:46 AM 41.0 °F 39.2 °F 93% 30.13 in 4.0 mi Calm Calm - N/A   Partly Cloudy
5:52 AM 41.0 °F 39.0 °F 93% 30.13 in 9.0 mi Calm Calm - N/A   Partly Cloudy
6:43 AM 42.8 °F 41.0 °F 93% 30.14 in 2.0 mi Calm Calm - N/A   Partly Cloudy
6:52 AM 42.1 °F 41.0 °F 96% 30.15 in 2.5 mi Calm Calm - N/A   Partly Cloudy
7:03 AM 42.8 °F 41.0 °F 93% 30.15 in 5.0 mi Calm Calm - N/A   Partly Cloudy
8:52 AM 55.9 °F 46.9 °F 72% 30.15 in 10.0 mi Calm Calm - N/A   Clear
9:52 AM 64.0 °F 46.9 °F 54% 30.14 in 10.0 mi Calm Calm - N/A   Clear
10:52 AM 66.0 °F 53.1 °F 63% 30.11 in 7.0 mi West 6.9 mph - N/A   Clear
11:52 AM 66.9 °F 54.0 °F 63% 30.08 in 7.0 mi WSW 6.9 mph - N/A   Clear
12:52 PM 66.9 °F 54.0 °F 63% 30.06 in 8.0 mi West 6.9 mph - N/A   Clear
1:52 PM 66.0 °F 55.0 °F 68% 30.04 in 7.0 mi WSW 10.4 mph - N/A   Clear
2:52 PM 64.9 °F 55.0 °F 70% 30.04 in 9.0 mi West 6.9 mph - N/A   Clear
3:52 PM 64.0 °F 55.0 °F 73% 30.04 in 10.0 mi West 5.8 mph - N/A   Clear
4:52 PM 61.0 °F 54.0 °F 78% 30.04 in 10.0 mi Calm Calm - N/A   Clear
5:52 PM 60.1 °F 54.0 °F 80% 30.04 in 10.0 mi Calm Calm - N/A   Clear
6:52 PM 57.9 °F 54.0 °F 87% 30.06 in 10.0 mi Calm Calm - N/A   Clear
7:52 PM 52.0 °F 48.9 °F 89% 30.07 in 9.0 mi Calm Calm - N/A   Clear
8:52 PM 46.9 °F 45.0 °F 93% 30.08 in 8.0 mi Calm Calm - N/A   Clear
9:52 PM 46.9 °F 45.0 °F 93% 30.08 in 6.0 mi Calm Calm - N/A   Clear
10:52 PM 48.0 °F 46.0 °F 93% 30.08 in 6.0 mi Calm Calm - 0.01 in   Clear
11:52 PM 46.0 °F 44.1 °F 93% 30.07 in 6.0 mi Calm Calm - N/A   Clear